IGO612V VOMM-VOBL

Flight info

Callsign IGO612V
Flight time 0h 29m
Altitude 14000
Route MMV W117 BIA
Aircraft A21N/M-SDE2E3FGHIRWXY/LB1

Departure

Time 2026-04-29 09:43
Airport Chennai International Airport (VOMM)

Arrival

Time 2026-04-29 10:12
Airport Kempegowda International Airport Bengaluru (VOBL)
Time Latitude Longitude Altitude Speed Heading
2026-04-29 09:23 12.98584 80.16567 50 ft 0 kts 340°
2026-04-29 09:31 12.98582 80.16568 50 ft 1 kts 341°
2026-04-29 09:31 12.98568 80.16573 50 ft 2 kts 341°
2026-04-29 09:31 12.98553 80.16577 50 ft 2 kts
2026-04-29 09:32 12.98538 80.16574 51 ft 2 kts 21°
2026-04-29 09:32 12.98525 80.16567 51 ft 2 kts 42°
2026-04-29 09:32 12.98516 80.16554 51 ft 2 kts 63°
2026-04-29 09:32 12.98513 80.16548 51 ft 1 kts 71°
2026-04-29 09:33 12.98512 80.16546 51 ft 0 kts 70°
2026-04-29 09:36 12.98513 80.16547 51 ft 0 kts 70°
2026-04-29 09:36 12.98517 80.16559 51 ft 2 kts 70°
2026-04-29 09:36 12.98526 80.16580 51 ft 4 kts 68°
2026-04-29 09:36 12.98537 80.16612 51 ft 5 kts 69°
2026-04-29 09:37 12.98552 80.16649 50 ft 6 kts 69°
2026-04-29 09:37 12.98568 80.16693 51 ft 6 kts 70°
2026-04-29 09:37 12.98582 80.16732 51 ft 5 kts 69°
2026-04-29 09:37 12.98609 80.16760 51 ft 6 kts 30°
2026-04-29 09:38 12.98659 80.16752 50 ft 9 kts 339°
2026-04-29 09:38 12.98728 80.16734 48 ft 11 kts
2026-04-29 09:38 12.98776 80.16790 48 ft 10 kts 75°
2026-04-29 09:38 12.98801 80.16856 48 ft 10 kts 68°
2026-04-29 09:39 12.98828 80.16927 48 ft 10 kts 69°
2026-04-29 09:39 12.98856 80.17001 48 ft 11 kts 70°
2026-04-29 09:39 12.98883 80.17074 49 ft 10 kts 68°
2026-04-29 09:39 12.98909 80.17142 50 ft 10 kts 69°
2026-04-29 09:40 12.98935 80.17208 50 ft 9 kts 65°
2026-04-29 09:40 12.98970 80.17274 49 ft 11 kts 61°
2026-04-29 09:40 12.99004 80.17356 49 ft 13 kts 68°
2026-04-29 09:40 12.99038 80.17446 50 ft 13 kts 69°
2026-04-29 09:41 12.99074 80.17543 49 ft 15 kts 69°
2026-04-29 09:41 12.99112 80.17645 50 ft 15 kts 67°
2026-04-29 09:41 12.99196 80.17688 48 ft 8 kts 346°
2026-04-29 09:41 12.99202 80.17687 48 ft 0 kts 343°
2026-04-29 09:42 12.99221 80.17680 47 ft 5 kts 340°
2026-04-29 09:42 12.99268 80.17660 46 ft 8 kts 326°
2026-04-29 09:42 12.99276 80.17588 45 ft 12 kts 250°
2026-04-29 09:42 12.99204 80.17398 45 ft 63 kts 248°
2026-04-29 09:43 12.98941 80.16719 47 ft 138 kts 248°
2026-04-29 09:43 12.98526 80.15622 190 ft 182 kts 243°
2026-04-29 09:43 12.98030 80.14391 771 ft 191 kts 244°
2026-04-29 09:43 12.97573 80.13135 1248 ft 191 kts 249°
2026-04-29 09:44 12.97572 80.11774 1665 ft 197 kts 283°
2026-04-29 09:44 12.98078 80.10434 1972 ft 207 kts 291°
2026-04-29 09:44 12.98664 80.09036 2216 ft 220 kts 290°
2026-04-29 09:44 12.99230 80.07555 2461 ft 232 kts 288°
2026-04-29 09:45 12.99789 80.05939 2658 ft 249 kts 287°
2026-04-29 09:45 13.00352 80.04198 2942 ft 264 kts 286°
2026-04-29 09:45 13.00928 80.02350 3263 ft 277 kts 286°
2026-04-29 09:45 13.01510 80.00449 3789 ft 281 kts 286°
2026-04-29 09:46 13.02087 79.98540 4386 ft 281 kts 286°
2026-04-29 09:46 13.02663 79.96630 4986 ft 282 kts 287°
2026-04-29 09:46 13.03236 79.94727 5502 ft 284 kts 287°
2026-04-29 09:46 13.03820 79.92786 5708 ft 285 kts 287°
2026-04-29 09:47 13.04405 79.90845 5720 ft 283 kts 288°
2026-04-29 09:47 13.04983 79.88921 5741 ft 283 kts 288°
2026-04-29 09:47 13.05571 79.86967 5757 ft 283 kts 287°
2026-04-29 09:47 13.06142 79.85061 5761 ft 283 kts 288°
2026-04-29 09:48 13.06725 79.83116 5767 ft 283 kts 288°
2026-04-29 09:48 13.07302 79.81193 5771 ft 283 kts 288°
2026-04-29 09:48 13.07840 79.79232 5857 ft 288 kts 285°
2026-04-29 09:48 13.08338 79.77238 6398 ft 290 kts 285°
2026-04-29 09:49 13.08835 79.75230 7002 ft 291 kts 285°
2026-04-29 09:49 13.09333 79.73213 7539 ft 294 kts 285°
2026-04-29 09:49 13.09833 79.71195 8076 ft 297 kts 285°
2026-04-29 09:49 13.10348 79.69130 8612 ft 301 kts 286°
2026-04-29 09:50 13.10880 79.67041 9156 ft 304 kts 286°
2026-04-29 09:50 13.11414 79.64934 9713 ft 306 kts 286°
2026-04-29 09:50 13.11943 79.62828 10206 ft 311 kts 286°
2026-04-29 09:50 13.12493 79.60625 10447 ft 326 kts 286°
2026-04-29 09:51 13.13065 79.58330 10691 ft 339 kts 286°
2026-04-29 09:51 13.13659 79.55934 10928 ft 353 kts 285°
2026-04-29 09:51 13.14271 79.53464 11153 ft 365 kts 285°
2026-04-29 09:51 13.14910 79.50879 11362 ft 378 kts 285°
2026-04-29 09:52 13.15562 79.48231 11563 ft 389 kts 285°
2026-04-29 09:52 13.16234 79.45506 11746 ft 400 kts 285°
2026-04-29 09:52 13.16921 79.42710 11928 ft 410 kts 285°
2026-04-29 09:52 13.17620 79.39864 12221 ft 416 kts 285°
2026-04-29 09:53 13.18327 79.36983 12649 ft 419 kts 285°
2026-04-29 09:53 13.19044 79.34071 13088 ft 420 kts 285°
2026-04-29 09:53 13.19763 79.31165 13502 ft 422 kts 285°
2026-04-29 09:53 13.20483 79.28270 13751 ft 423 kts 285°
2026-04-29 09:54 13.21212 79.25336 13786 ft 422 kts 285°
2026-04-29 09:54 13.21932 79.22430 13801 ft 422 kts 285°
2026-04-29 09:54 13.22656 79.19507 13798 ft 421 kts 285°
2026-04-29 09:54 13.23377 79.16578 13805 ft 421 kts 285°
2026-04-29 09:55 13.24095 79.13660 13813 ft 421 kts 285°
2026-04-29 09:55 13.24813 79.10744 13819 ft 421 kts 285°
2026-04-29 09:55 13.25527 79.07841 13832 ft 421 kts 285°
2026-04-29 09:55 13.26233 79.04957 13836 ft 421 kts 285°
2026-04-29 09:56 13.26952 79.02025 13848 ft 421 kts 285°
2026-04-29 09:56 13.27669 78.99112 13847 ft 421 kts 285°
2026-04-29 09:56 13.28384 78.96202 13861 ft 421 kts 285°
2026-04-29 09:56 13.28966 78.93298 13876 ft 421 kts 280°
2026-04-29 09:57 13.29243 78.90299 13879 ft 422 kts 273°
2026-04-29 09:57 13.29193 78.87282 13888 ft 423 kts 268°
2026-04-29 09:57 13.28987 78.84242 13893 ft 424 kts 266°
2026-04-29 09:57 13.28752 78.81232 13899 ft 424 kts 266°
2026-04-29 09:58 13.28519 78.78242 13903 ft 423 kts 266°
2026-04-29 09:58 13.28288 78.75219 13911 ft 423 kts 266°
2026-04-29 09:58 13.28062 78.72210 13915 ft 424 kts 266°
2026-04-29 09:58 13.27841 78.69212 13824 ft 424 kts 267°
2026-04-29 09:59 13.27620 78.66192 13587 ft 422 kts 266°
2026-04-29 09:59 13.27402 78.63187 13348 ft 421 kts 266°
2026-04-29 09:59 13.27183 78.60213 13117 ft 420 kts 266°
2026-04-29 09:59 13.26962 78.57220 12879 ft 420 kts 266°
2026-04-29 10:00 13.26746 78.54258 12642 ft 418 kts 266°
2026-04-29 10:00 13.26530 78.51301 12402 ft 414 kts 266°
2026-04-29 10:00 13.26360 78.48387 12159 ft 399 kts 269°
2026-04-29 10:00 13.26426 78.45634 11909 ft 379 kts 275°
2026-04-29 10:01 13.26726 78.43018 11664 ft 358 kts 280°
2026-04-29 10:01 13.27114 78.40563 11419 ft 338 kts 281°
2026-04-29 10:01 13.27497 78.38239 11178 ft 321 kts 281°
2026-04-29 10:01 13.27857 78.36034 10936 ft 310 kts 281°
2026-04-29 10:02 13.28207 78.33876 10701 ft 308 kts 280°
2026-04-29 10:02 13.28555 78.31696 10493 ft 308 kts 280°
2026-04-29 10:02 13.28892 78.29559 10342 ft 303 kts 280°
2026-04-29 10:02 13.29226 78.27455 10074 ft 296 kts 280°
2026-04-29 10:03 13.29555 78.25378 9877 ft 294 kts 280°
2026-04-29 10:03 13.29887 78.23296 9759 ft 294 kts 280°
2026-04-29 10:03 13.30214 78.21240 9645 ft 294 kts 280°
2026-04-29 10:03 13.30474 78.19153 9518 ft 293 kts 269°
2026-04-29 10:04 13.30001 78.17165 9365 ft 284 kts 245°
2026-04-29 10:04 13.29165 78.15340 9134 ft 278 kts 244°
2026-04-29 10:04 13.28350 78.13589 8977 ft 268 kts 244°
2026-04-29 10:04 13.27567 78.11907 8857 ft 257 kts 244°
2026-04-29 10:05 13.26806 78.10274 8643 ft 249 kts 244°
2026-04-29 10:05 13.26077 78.08706 8356 ft 243 kts 244°
2026-04-29 10:05 13.25337 78.07110 7875 ft 244 kts 244°
2026-04-29 10:05 13.24633 78.05582 7652 ft 233 kts 244°
2026-04-29 10:06 13.23953 78.04102 7390 ft 223 kts 244°
2026-04-29 10:06 13.23298 78.02671 6923 ft 226 kts 244°
2026-04-29 10:06 13.22625 78.01205 6449 ft 227 kts 244°
2026-04-29 10:06 13.21960 77.99753 6133 ft 223 kts 244°
2026-04-29 10:07 13.21322 77.98308 6063 ft 219 kts 248°
2026-04-29 10:07 13.20817 77.96845 6056 ft 215 kts 254°
2026-04-29 10:07 13.20549 77.95338 6063 ft 214 kts 264°
2026-04-29 10:07 13.20487 77.93813 6062 ft 215 kts 270°
2026-04-29 10:08 13.20508 77.92281 6062 ft 215 kts 271°
2026-04-29 10:08 13.20541 77.90745 6049 ft 216 kts 271°
2026-04-29 10:08 13.20564 77.89204 5876 ft 216 kts 270°
2026-04-29 10:08 13.20578 77.87668 5629 ft 213 kts 270°
2026-04-29 10:09 13.20586 77.86171 5371 ft 210 kts 270°
2026-04-29 10:09 13.20594 77.84674 5107 ft 206 kts 270°
2026-04-29 10:09 13.20603 77.83250 4843 ft 192 kts 270°
2026-04-29 10:09 13.20612 77.81928 4606 ft 182 kts 270°
2026-04-29 10:10 13.20621 77.80647 4393 ft 180 kts 270°
2026-04-29 10:10 13.20630 77.79415 4152 ft 164 kts 269°
2026-04-29 10:10 13.20639 77.78258 3963 ft 161 kts 270°
2026-04-29 10:10 13.20648 77.77103 3773 ft 160 kts 269°
2026-04-29 10:11 13.20657 77.75974 3585 ft 159 kts 269°
2026-04-29 10:11 13.20666 77.74844 3396 ft 157 kts 269°
2026-04-29 10:11 13.20675 77.73725 3209 ft 156 kts 269°
2026-04-29 10:11 13.20687 77.72607 3007 ft 156 kts 268°
2026-04-29 10:12 13.20687 77.71509 2929 ft 148 kts 269°
2026-04-29 10:12 13.20697 77.70661 2968 ft 97 kts 271°
2026-04-29 10:12 13.20595 77.70263 2984 ft 22 kts 204°
2026-04-29 10:12 13.20561 77.70267 2984 ft 1 kts 143°
2026-04-29 10:13 13.20556 77.70271 2984 ft 0 kts 134°
2026-04-29 10:14 13.20549 77.70280 2984 ft 3 kts 134°
2026-04-29 10:14 13.20535 77.70312 2983 ft 6 kts 98°
2026-04-29 10:15 13.20515 77.70364 2982 ft 9 kts 161°
2026-04-29 10:15 13.20440 77.70390 2981 ft 12 kts 162°
2026-04-29 10:15 13.20344 77.70391 2979 ft 14 kts 181°
2026-04-29 10:15 13.20260 77.70409 2977 ft 11 kts 125°
2026-04-29 10:16 13.20250 77.70493 2975 ft 13 kts 94°
2026-04-29 10:16 13.20245 77.70559 2975 ft 14 kts 95°
2026-04-29 10:16 13.20243 77.70714 2973 ft 18 kts 91°
2026-04-29 10:16 13.20237 77.70823 2970 ft 3 kts 130°
2026-04-29 10:17 13.20196 77.70834 2970 ft 6 kts 170°
2026-04-29 10:17 13.20168 77.70836 2971 ft 0 kts 179°